Home > Weather > Durrës > Past weeks

Flag for Albania Past Weather in Durrës, Albania — Yesterday and Last 2 Weeks

Now
64 °F

Passing clouds.


Feels Like: 64 °F
Forecast: 74 / 83 °F
Wind: 3 mph from Southeast

Location: Tirana Airport

Current Time: Aug 25, 2016 at 6:51:02 AM

Latest Report: Aug 25, 2016 at 6:20 AM


Visibility: N/A

Pressure: 29.92 "Hg

Humidity: 83%

Dew Point: 59 °F

Location of DurrësLocation

Past Weather in Durrës — Graph

°F

Durrës Temperature Yesterday

Maximum temperature yesterday: 93 °F (at 1:20 PM)
Minimum temperature yesterday: 66 °F (at 12:50 AM)
Average temperature yesterday: 76 °F

High & Low Weather Summary for the Past Weeks

 TemperatureHumidityPressure
High93 °F (Aug 21, 1:50 PM)100% (Aug 17, 6:50 AM)30.15 "Hg (Aug 17, 6:50 AM)
Low55 °F (Aug 13, 5:50 AM)17% (Aug 13, 2:20 PM)29.80 "Hg (Aug 18, 4:50 AM)
Average75 °F63%29.95 "Hg
* Reported Aug 10 5:20 AM — Aug 25 5:20 AM, Durrës, Weather by CustomWeather, © 2016

Note: Actual official high and low records may vary slightly from our data, if they occured in-between our weather recording intervals... More about our weather records

Advertising

Durrës Weather History for the Previous 24 Hours

Scroll right to see more
 ConditionsComfort  
Time TempWeatherWind HumidityBarometerVisibility
5:20 AM
Thu, Aug 25
64 °FClear.2 mph83%29.92 "Hg10 mi
4:50 AM64 °FPassing clouds.3 mph83%29.92 "HgN/A
4:20 AM64 °FClear.No wind83%29.92 "Hg10 mi
3:50 AM66 °FClear.No wind78%29.92 "Hg10 mi
3:20 AM64 °FClear.No wind83%29.92 "Hg10 mi
2:50 AM66 °FClear.No wind83%29.92 "Hg10 mi
2:20 AM68 °FPassing clouds.3 mph78%29.95 "HgN/A
1:50 AM68 °FClear.No wind78%29.95 "Hg10 mi
1:20 AM66 °FPassing clouds.3 mph83%29.95 "HgN/A
12:50 AM68 °FClear.No wind78%29.95 "Hg10 mi
12:20 AM68 °FClear.6 mph83%29.95 "Hg10 mi
11:50 PM
Wed, Aug 24
68 °FPassing clouds.5 mph83%29.95 "HgN/A
11:20 PM68 °FClear.2 mph83%29.95 "Hg10 mi
10:50 PM70 °FClear.3 mph78%29.95 "Hg10 mi
10:20 PM70 °FClear.No wind83%29.92 "Hg10 mi
9:50 PM70 °FClear.7 mph83%29.95 "Hg10 mi
9:20 PM72 °FClear.2 mph78%29.95 "Hg10 mi
8:50 PM72 °FClear.2 mph73%29.95 "Hg10 mi
8:20 PM72 °FSunny.No wind73%29.92 "Hg10 mi
7:50 PM72 °FPassing clouds.3 mph73%29.92 "HgN/A
7:20 PM73 °FSunny.5 mph65%29.92 "Hg10 mi
6:50 PM79 °FPassing clouds.3 mph54%29.92 "HgN/A
6:20 PM79 °FScattered clouds.5 mph54%29.92 "HgN/A
5:50 PM77 °FScattered clouds.5 mph51%29.92 "HgN/A
5:20 PM77 °FScattered clouds.8 mph54%29.92 "HgN/A
4:50 PM82 °FThundershowers. Scattered clouds.3 mph48%29.92 "HgN/A
4:20 PM91 °FScattered clouds.12 mph34%29.89 "HgN/A
3:50 PM93 °FScattered clouds.12 mph32%29.89 "HgN/A
3:20 PM93 °FPassing clouds.12 mph30%29.89 "HgN/A
2:50 PM91 °FPassing clouds.8 mph28%29.92 "HgN/A
2:20 PM93 °FPassing clouds.7 mph28%29.92 "HgN/A
1:50 PM91 °FPassing clouds.3 mph30%29.92 "HgN/A
1:20 PM93 °FSunny.No wind28%29.92 "Hg10 mi
12:50 PM91 °FSunny.2 mph28%29.92 "Hg10 mi
12:20 PM90 °FSunny.2 mph29%29.95 "Hg10 mi
11:50 AM90 °FPassing clouds.3 mph31%29.95 "HgN/A
11:20 AM88 °FScattered clouds.5 mph35%29.95 "HgN/A
10:50 AM90 °FScattered clouds.2 mph38%29.95 "HgN/A
10:20 AM81 °FPartly sunny.3 mph42%29.95 "HgN/A
9:50 AM79 °FScattered clouds.2 mph48%29.95 "HgN/A
9:20 AM75 °FBroken clouds.1 mph54%29.98 "HgN/A
8:50 AM75 °FBroken clouds.No wind61%29.95 "HgN/A
8:20 AM73 °FBroken clouds.2 mph65%29.95 "HgN/A
7:50 AM72 °FBroken clouds.2 mph65%29.95 "HgN/A
7:20 AM70 °FBroken clouds.2 mph73%29.95 "HgN/A
6:50 AM68 °FPassing clouds.2 mph73%29.95 "HgN/A
6:20 AM68 °FPassing clouds.1 mph73%29.95 "HgN/A
Weather by CustomWeather, © 2016

See weather overviewHow to use our weather pages